Regional Weather Roundup
Issued by NWS

Home | Current Version | Previous Version | Text Only | Print | Product List | Glossary On
Versions: 1 2 3 4 5 6 7 8 9 10 11 12 13 14 15 16 17 18 19 20 21 22 23 24 25 26 27 28 29 30 31 32 33 34 35 36 37 38 39 40 41 42 43 44 45 46 47 48 49 50
825
ASUS44 KBMX 312210
RWRAL

ALABAMA REGIONAL WEATHER ROUNDUP
NATIONAL WEATHER SERVICE BIRMINGHAM AL
500 PM CDT WED AUG 31 2016

NOTE: "FAIR" INDICATES FEW OR NO CLOUDS BELOW 12,000 FEET
WITH NO SIGNIFICANT WEATHER AND/OR OBSTRUCTIONS TO VISIBILITY.

THE REMARK "TC" DENOTES TEMPERATURE IN DEGREES CELSIUS.

ALZ001>011-014-016>018-020-312300-
NORTH ALABAMA

CITY           SKY/WX    TMP DP  RH WIND       PRES   REMARKS
MUSCLE SHOALS  PTSUNNY   86  70  58 W5        29.92F HX  90
HUNTSVILLE     MOSUNNY   95  65  37 NW7       29.89F HX  97
DECATUR        SUNNY     94  69  44 NW7       29.89F HX  99
HALEYVILLE     NOT AVBL
GADSDEN        SUNNY     95  67  39 E6        29.87F HX  99
$$

ALZ012-013-022-023-030>036-040>044-312300-
WEST CENTRAL ALABAMA

CITY           SKY/WX    TMP DP  RH WIND       PRES   REMARKS
TUSCALOOSA     SUNNY     96  65  35 CALM      29.85F HX  98
$$

ALZ015-024>027-033>036-040>044-312300-
CENTRAL ALABAMA

CITY           SKY/WX    TMP DP  RH WIND       PRES   REMARKS
BIRMINGHAM     MOSUNNY   94  64  37 VRB3      29.89F HX  95
MONTGOMERY     MOSUNNY   93  64  38 NE8       29.84F HX  94
SHELBY CO ARPT MOSUNNY   94  63  35 VRB5      29.87F HX  95
MAXWELL AFB    SUNNY     93  68  43 E7        29.84F HX  97
GREENVILLE     FAIR      93  66  40 NE10      29.84F HX  96
$$

ALZ019-021-028-029-037-038-045>048-312300-
EAST CENTRAL ALABAMA

CITY           SKY/WX    TMP DP  RH WIND       PRES   REMARKS
ANNISTON       SUNNY     94  62  34 E6        29.87F HX  94
ALEXANDER CITY SUNNY     95  75  52 E5        29.88F HX 107
AUBURN         MOSUNNY   90  68  48 E6        29.89S HX  94
$$

ALZ051>064-312300-
SOUTHWEST ALABAMA

CITY           SKY/WX    TMP DP  RH WIND       PRES   REMARKS
MOBILE         MOSUNNY   92  69  47 NE14      29.82F HX  97
BROOKLEY FIELD SUNNY     92  72  51 NE12      29.82F HX  99
EVERGREEN      SUNNY     91  71  51 NE7       29.84S HX  97
$$

ALZ049-050-065>069-312300-
SOUTHEAST ALABAMA

CITY           SKY/WX    TMP DP  RH WIND       PRES   REMARKS
DOTHAN         MOSUNNY   90  73  57 E9        29.87F HX  98
OZARK          PTSUNNY   89  73  58 E8        29.83F HX  96
TROY           SUNNY     92  69  47 E6        29.85F HX  97
EUFAULA        FAIR      95  70  44 E12       29.83F HX 101
$$




USA.gov is the U.S. government's official web portal to all federal, state and local government web resources and services.